Orlando International, FL

10:48 AM EDT on June 25, 2017 (GMT -0400)
Orlando International

Weather History for KMCO - January, 2012

Change the Weather History Date:

Friday, January 13, 2012

  Actual Average Record
Temperature  
Mean Temperature 56 °F 60 °F  
Max Temperature 64 °F 71 °F 86 °F (1972)
Min Temperature 48 °F 49 °F 23 °F (1981)
Degree Days  
Heating Degree Days 9 7  
Month to date heating degree days 94 85  
Since 1 July heating degree days 177 276  
Cooling Degree Days 0 1  
Month to date cooling degree days 1 16  
Year to date cooling degree days 1 16  
Growing Degree Days 6 (Base 50)    
Moisture  
Dew Point 39 °F    
Average Humidity 58    
Maximum Humidity 84    
Minimum Humidity 31    
Precipitation  
Precipitation 0.00 in 0.08 in 2.83 in (1925)
Month to date precipitation 0.09 1.00  
Year to date precipitation 0.09 1.00  
Sea Level Pressure  
Sea Level Pressure 30.13 in    
Wind  
Wind Speed 8 mph (WNW)    
Max Wind Speed 16 mph    
Max Gust Speed 21 mph    
Visibility 10 miles    
Events      
T = Trace of Precipitation, MM = Missing Value Source: NWS Daily Summary

Daily Weather History Graph

Daily Weather History Graph

Search for Another Location

Airport or City:

Trip Planner

Search our weather history database for the weather conditions in past years. The results will help you decide how hot, cold, wet, or windy it might be!

Date:

Astronomy

Jan. 13, 2012 Rise Set
Actual Time 7:18 AM EST 5:48 PM EST
Civil Twilight 6:53 AM EST 6:14 PM EST
Nautical Twilight 6:24 AM EST 6:43 PM EST
Astronomical Twilight 5:55 AM EST 7:11 PM EST
Moon 10:30 PM EST (1/13) 9:59 AM EST (1/13)
Length of Visible Light 11h 21m
Length of Day
10h 30m
Waning Gibbous, 79% of the Moon is Illuminated
Jan 13
Waning Gibbous
Jan 16
Last Quarter
Jan 23
New
Jan 30
First Quarter
Feb 7
Full

Hourly Weather History & Observations

Time (EST) Temp. Dew Point Humidity Pressure Visibility Wind Dir Wind Speed Gust Speed Precip Events Conditions
12:53 AM 63.0 °F 57.9 °F 84% 29.96 in 10.0 mi SW 8.1 mph - N/A   Overcast
1:53 AM 64.0 °F 59.0 °F 84% 29.98 in 10.0 mi WSW 10.4 mph - N/A   Overcast
2:23 AM 62.6 °F 57.2 °F 82% 29.98 in 10.0 mi West 10.4 mph - N/A   Mostly Cloudy
2:53 AM 62.1 °F 57.0 °F 84% 29.99 in 10.0 mi West 10.4 mph - N/A   Overcast
3:53 AM 61.0 °F 54.0 °F 78% 30.01 in 10.0 mi WNW 15.0 mph - N/A   Overcast
4:53 AM 57.9 °F 51.1 °F 78% 30.04 in 10.0 mi West 8.1 mph - N/A   Overcast
5:53 AM 55.0 °F 48.0 °F 77% 30.08 in 10.0 mi West 6.9 mph - N/A   Mostly Cloudy
6:53 AM 54.0 °F 42.1 °F 64% 30.10 in 10.0 mi WNW 10.4 mph - N/A   Mostly Cloudy
7:53 AM 53.1 °F 37.0 °F 55% 30.12 in 10.0 mi WNW 8.1 mph - N/A   Mostly Cloudy
8:53 AM 54.0 °F 37.9 °F 55% 30.16 in 10.0 mi NW 9.2 mph - N/A   Mostly Cloudy
9:53 AM 55.0 °F 37.9 °F 53% 30.19 in 10.0 mi NW 9.2 mph - N/A   Mostly Cloudy
10:53 AM 55.0 °F 37.0 °F 51% 30.18 in 10.0 mi WNW 4.6 mph - N/A   Mostly Cloudy
11:53 AM 57.0 °F 34.0 °F 42% 30.17 in 10.0 mi West 3.5 mph - N/A   Mostly Cloudy
12:53 PM 59.0 °F 28.0 °F 31% 30.15 in 10.0 mi NW 8.1 mph - N/A   Mostly Cloudy
1:53 PM 57.0 °F 32.0 °F 39% 30.14 in 10.0 mi WNW 6.9 mph - N/A   Mostly Cloudy
2:53 PM 60.1 °F 32.0 °F 35% 30.14 in 10.0 mi West 8.1 mph - N/A   Mostly Cloudy
3:53 PM 59.0 °F 30.9 °F 35% 30.14 in 10.0 mi West 6.9 mph - N/A   Mostly Cloudy
4:53 PM 55.9 °F 26.1 °F 32% 30.16 in 10.0 mi WNW 6.9 mph - N/A   Mostly Cloudy
5:53 PM 54.0 °F 27.0 °F 35% 30.16 in 10.0 mi SW 3.5 mph - N/A   Overcast
6:53 PM 53.1 °F 28.9 °F 40% 30.18 in 10.0 mi West 3.5 mph - N/A   Mostly Cloudy
7:53 PM 53.1 °F 30.9 °F 43% 30.20 in 10.0 mi West 8.1 mph - N/A   Overcast
8:53 PM 51.1 °F 30.9 °F 46% 30.21 in 10.0 mi West 9.2 mph - N/A   Overcast
9:53 PM 48.9 °F 32.0 °F 52% 30.25 in 10.0 mi WNW 10.4 mph - N/A   Overcast
10:53 PM 48.9 °F 35.1 °F 59% 30.25 in 10.0 mi WNW 12.7 mph - N/A   Mostly Cloudy
11:53 PM 48.0 °F 35.1 °F 61% 30.25 in 10.0 mi NW 6.9 mph - N/A   Overcast